GFSSGP_sfc_dewp_078.txt.gz
Dewpoint
51 34 37 37 25 16 20 20 28 25 22 26 26 27 41 43 34 41 62 62 59 63 71 73 77 77 78 78 77 76 76 76 75 76 76 76 76 76 76 76 76 75 73 72 71 70 70 70 70
35 35 37 33 23 15 15 16 22 27 26 28 23 29 43 44 51 57 60 63 63 66 72 71 77 77 77 77 77 76 76 76 76 76 76 76 76 76 76 76 75 74 72 70 69 69 70 70 71
33 35 32 29 26 19 14 15 25 25 27 26 27 39 43 47 53 58 62 64 64 68 71 73 76 77 77 76 77 76 76 76 76 76 76 76 76 76 76 76 75 73 70 69 68 68 69 70 71
30 32 33 28 25 24 17 22 27 25 26 27 30 36 44 52 53 60 63 63 66 68 69 75 76 76 77 77 77 76 76 76 76 76 76 76 76 76 75 75 74 73 71 69 69 69 69 69 69
30 31 29 27 26 26 28 25 29 27 26 28 28 34 44 61 66 64 62 63 65 66 68 73 76 76 76 77 77 76 76 76 76 76 76 76 75 75 75 75 74 73 71 70 68 68 69 68 67
25 28 27 25 26 27 31 30 30 27 26 27 27 31 39 50 61 65 63 62 62 65 68 71 75 76 76 76 76 76 76 75 76 75 75 75 75 75 75 74 73 72 72 70 68 68 67 67 67
21 24 24 25 25 25 28 29 27 27 27 25 28 27 34 33 50 65 65 64 62 64 66 69 69 73 75 75 75 75 75 75 75 75 75 75 75 74 74 73 73 72 72 71 70 68 67 67 66
21 19 20 19 19 23 26 27 26 25 25 26 27 28 30 33 43 62 65 64 62 63 64 67 68 68 68 70 75 75 75 75 75 75 75 74 74 74 73 73 73 72 71 71 70 68 67 66 65
24 21 15 15 18 21 25 22 21 25 24 24 25 27 29 33 46 58 63 62 61 61 64 66 66 68 66 64 69 74 75 75 75 74 74 73 68 69 70 67 73 72 71 71 70 69 68 65 66
22 18 15 18 22 23 24 23 20 22 23 23 24 25 27 29 41 51 59 61 60 60 61 64 68 68 67 63 68 68 68 68 69 69 71 69 67 65 62 66 73 72 71 69 69 68 66 65 53
19 17 19 23 24 24 22 20 20 19 19 21 21 21 24 27 30 33 48 57 59 60 61 62 69 71 68 64 66 66 66 66 67 68 70 70 66 65 62 62 64 65 68 60 63 62 58 57 56
18 20 19 20 19 20 19 18 18 18 19 18 19 22 23 25 27 28 30 48 58 60 62 65 68 71 71 66 66 66 65 66 65 66 70 69 67 66 65 60 59 63 60 59 59 56 59 62 64
19 18 18 18 18 18 18 17 16 16 16 16 16 19 20 22 26 29 30 36 53 60 64 65 68 71 72 72 68 68 68 66 66 66 68 68 66 67 64 63 61 62 59 60 59 57 60 63 66
18 17 16 17 17 17 16 16 16 16 18 18 20 21 21 21 24 28 31 35 44 59 64 66 68 72 72 72 73 71 71 68 67 65 66 69 67 69 64 66 64 62 61 58 59 59 60 63 64
18 17 17 17 17 17 18 17 17 18 19 21 21 21 21 22 24 28 33 37 43 54 62 68 69 70 74 74 72 71 69 68 67 66 69 70 70 72 69 65 64 62 64 66 65 64 63 62 64
15 16 10 13 15 14 16 10 15 18 19 19 20 20 21 23 26 31 35 42 47 56 63 68 67 69 73 74 73 71 69 69 67 67 69 71 71 69 70 65 64 65 66 64 62 62 61 63 63
14 5 8 7 10 10 12 10 13 18 20 21 22 23 22 23 27 33 34 36 42 55 65 68 70 69 72 73 71 72 73 69 67 67 67 71 70 69 68 64 63 68 63 62 61 61 64 61 63
7 7 8 11 11 15 13 14 16 17 18 20 21 23 23 23 26 30 33 36 41 49 61 70 70 72 73 72 73 69 68 68 67 67 68 71 71 69 72 67 69 68 64 60 61 66 62 62 61
14 13 13 15 16 17 19 18 18 20 21 20 21 22 25 25 26 30 34 40 43 48 54 64 71 73 72 71 70 68 67 68 67 68 70 70 70 71 73 67 70 70 67 67 70 66 66 62 65
15 15 16 17 17 19 21 20 21 22 23 22 23 23 23 24 26 28 32 39 44 48 53 58 67 71 73 71 72 70 69 67 67 67 69 69 69 70 71 71 70 71 67 70 69 69 62 61 64
17 17 18 17 19 21 22 20 21 20 22 23 23 24 24 25 28 30 30 35 41 45 52 55 62 70 73 73 71 71 70 69 68 68 68 70 70 70 71 72 71 71 70 66 71 70 68 59 65
17 16 18 20 22 18 23 18 23 22 21 22 23 25 25 25 26 29 32 34 37 42 45 52 57 63 68 73 71 73 68 67 67 68 69 69 71 70 70 73 71 73 70 69 68 68 68 68 62
19 22 24 24 24 24 21 17 19 19 18 20 24 24 26 27 28 26 28 31 34 40 44 50 57 60 64 71 72 70 70 66 66 66 71 72 71 71 69 71 71 71 69 70 71 71 70 66 65
25 25 25 25 22 19 18 16 16 15 19 23 24 25 27 26 28 32 36 39 40 41 41 45 54 60 62 66 70 73 72 70 66 69 68 67 67 68 70 68 70 71 71 71 71 72 71 70 68
29 26 19 15 14 13 14 12 16 20 25 29 31 32 32 36 37 38 36 38 41 42 44 44 46 55 61 63 67 70 71 72 73 71 68 69 65 66 71 72 71 69 72 72 73 72 70 69 66
25 27 22 21 16 12 14 11 13 23 32 34 34 36 37 38 39 40 41 43 41 43 46 48 46 49 57 63 65 68 70 67 68 71 66 65 64 67 73 71 71 71 71 71 72 70 68 69 67
25 24 28 25 21 19 14 16 18 22 33 33 32 35 36 37 37 38 41 42 43 45 46 49 50 48 53 61 66 69 70 70 68 72 73 67 70 62 69 71 71 71 71 71 71 69 69 69 68
24 27 25 28 22 13 7 11 9 23 26 27 30 31 32 34 35 37 38 40 43 45 45 48 53 53 51 57 64 68 70 71 70 70 71 69 68 66 68 69 70 70 70 69 71 71 70 69 64
24 24 27 29 32 24 16 9 21 22 25 25 29 29 30 34 34 35 37 38 39 41 44 47 50 53 52 54 61 66 68 68 67 65 63 62 65 63 62 63 65 66 67 68 69 69 67 68 68
22 22 23 29 26 31 30 22 23 27 28 31 31 27 30 35 36 35 36 37 37 38 40 45 48 51 52 53 58 62 62 61 60 58 59 60 60 59 56 57 58 58 59 63 64 63 62 63 64

GFSSGP_sfc_dewp_084.txt.gz
Dewpoint
50 39 38 35 29 29 27 27 30 29 32 30 27 28 29 28 42 50 58 61 67 70 75 76 77 77 77 77 76 76 76 76 76 76 76 76 77 77 77 76 76 75 75 74 72 71 71 71 71
40 38 35 32 28 24 24 27 27 30 28 28 27 26 26 32 51 54 58 61 68 71 75 75 77 77 77 77 76 76 76 76 76 76 76 76 77 77 77 76 76 75 73 71 71 70 71 72 72
40 35 33 29 28 26 24 24 27 28 29 28 28 28 31 51 53 60 62 65 68 71 73 76 77 77 77 77 76 76 76 76 76 76 76 76 76 76 76 76 75 74 72 70 70 71 73 73 72
32 33 32 28 27 27 27 28 22 27 26 28 28 29 52 57 57 59 62 61 68 69 70 77 77 77 77 77 76 76 76 76 76 76 76 76 76 76 76 76 75 73 72 71 72 72 73 73 72
28 30 27 26 27 28 29 29 23 23 24 26 27 33 51 57 59 59 61 59 64 66 73 75 77 77 77 77 77 76 76 76 76 76 76 76 76 76 76 75 74 73 72 71 71 71 72 72 72
25 28 26 25 26 28 29 33 30 23 24 24 25 28 39 49 60 57 57 59 62 63 72 74 77 77 77 77 77 76 76 76 76 76 76 76 76 76 75 75 74 73 72 71 71 70 70 70 69
24 27 25 25 26 27 28 32 30 25 25 23 26 27 35 37 50 59 58 58 59 62 70 72 73 76 77 77 76 76 76 76 76 75 75 76 75 75 75 74 74 73 72 71 70 70 68 67 66
20 24 24 23 24 25 29 33 32 30 28 27 27 26 32 36 41 56 58 57 57 59 68 70 71 73 74 75 76 76 76 76 75 75 75 75 75 75 75 73 73 73 72 71 70 68 67 66 66
17 17 20 21 22 25 28 31 33 31 28 30 27 26 28 31 39 49 59 57 55 58 65 68 69 71 71 72 75 76 76 76 75 75 75 74 72 73 73 71 73 73 72 71 70 68 68 67 67
16 17 14 14 18 20 24 25 26 27 27 30 32 32 28 28 31 36 53 59 56 57 60 65 70 69 69 67 74 75 74 74 74 73 74 73 72 71 70 70 73 72 71 71 70 69 68 67 60
15 16 15 12 11 12 17 19 22 23 24 28 33 33 30 32 33 31 31 51 56 57 58 63 69 70 67 66 73 72 73 73 74 73 74 73 71 72 68 70 69 70 71 66 67 66 63 61 59
13 16 17 16 12 16 18 21 21 20 23 25 24 25 25 25 30 29 30 31 52 59 61 64 67 70 70 66 70 69 69 71 72 73 74 73 71 72 68 67 66 68 65 64 63 61 62 62 62
13 15 15 15 14 17 19 19 19 17 17 17 17 21 22 25 30 31 33 35 42 53 66 69 69 70 70 74 69 68 67 68 69 70 71 71 70 71 68 68 66 65 63 62 64 62 62 64 64
15 14 15 15 15 17 16 15 15 16 17 18 20 21 20 22 25 29 33 36 48 48 60 67 72 72 72 71 75 71 68 69 68 68 68 70 69 71 69 69 70 64 63 61 63 66 68 65 64
15 15 16 15 15 15 15 14 14 16 18 20 19 21 22 25 25 31 38 44 48 49 53 68 70 73 73 72 73 75 71 69 67 68 71 69 71 72 68 67 68 67 65 70 66 68 67 67 64
15 16 14 14 15 14 15 14 16 16 19 20 21 20 22 26 27 35 40 47 55 57 62 65 64 73 74 74 72 73 70 69 68 67 68 70 71 72 69 66 66 66 70 70 69 68 66 65 64
16 11 12 11 12 14 14 14 14 17 20 21 25 27 24 27 32 39 44 44 57 55 57 62 68 70 74 74 73 72 74 73 71 68 68 70 70 70 69 66 66 70 69 69 67 68 66 65 64
10 10 9 9 12 13 10 12 12 12 13 21 23 25 26 28 32 40 42 44 52 57 60 62 67 74 75 74 74 73 72 71 71 70 68 70 69 69 71 67 68 70 68 68 67 67 66 66 66
10 10 11 10 8 9 12 13 14 16 17 18 22 25 28 30 33 38 44 46 49 56 58 62 65 75 75 75 73 72 71 71 71 69 72 70 70 70 69 68 70 69 67 67 68 67 68 64 67
15 14 14 13 11 14 16 17 19 19 21 23 27 28 29 31 34 38 42 50 52 56 62 64 66 69 75 73 74 72 71 70 71 71 70 71 70 70 68 68 66 67 65 67 68 66 63 66 67
16 16 16 13 15 18 19 18 20 19 23 25 25 28 27 32 36 39 43 49 51 56 61 61 64 67 69 74 74 74 73 73 72 70 70 70 70 71 70 69 67 66 66 65 67 69 67 63 64
16 15 14 15 16 14 18 16 22 22 22 23 24 28 28 30 34 36 40 46 49 52 53 58 64 66 66 67 72 72 70 68 68 69 69 68 71 71 70 70 69 68 68 66 68 68 68 67 64
15 17 19 20 21 22 20 19 21 23 21 22 29 30 32 33 35 34 37 41 45 49 54 58 61 62 64 67 65 70 69 71 72 72 71 70 72 72 70 71 70 69 68 69 68 68 70 68 65
19 20 21 22 22 19 21 20 19 20 20 23 28 30 31 32 37 39 41 44 46 47 48 54 60 63 63 65 68 66 68 68 70 70 69 70 71 72 71 71 71 72 70 71 70 72 70 70 67
22 23 20 21 23 22 23 25 25 21 22 24 27 27 29 32 34 36 37 39 44 45 48 49 53 56 59 60 61 63 66 67 68 69 69 70 69 71 70 70 70 70 71 70 71 70 71 71 69
23 26 25 24 22 20 22 20 19 20 23 28 28 30 31 32 35 36 37 41 38 43 47 48 50 53 56 58 58 59 60 63 64 68 69 69 69 69 71 71 70 71 71 71 71 70 70 71 70
24 24 27 27 26 23 21 20 20 19 28 31 31 32 30 32 36 34 33 38 39 43 48 48 49 52 53 54 58 60 61 60 63 67 69 69 69 69 70 71 71 71 71 72 71 70 70 70 70
26 25 25 23 25 21 19 18 14 21 22 22 24 24 26 28 28 34 39 39 43 44 44 52 53 51 52 53 55 54 59 59 60 66 68 69 68 68 68 69 71 71 71 71 71 71 71 71 71
24 25 25 28 30 25 20 19 24 25 25 25 23 24 26 28 29 32 35 39 39 40 41 46 48 46 43 48 52 55 55 58 59 64 66 68 68 68 68 69 70 70 71 71 71 70 70 70 69
27 24 26 30 28 30 32 25 27 27 25 27 24 27 28 33 33 33 34 36 36 38 41 42 47 46 44 46 50 53 54 58 62 63 65 67 67 67 68 65 66 68 68 66 67 68 69 68 69

GFSSGP_sfc_dewp_087.txt.gz
Dewpoint
52 36 39 37 34 31 29 29 31 30 30 29 28 27 37 52 52 53 66 70 73 75 76 76 77 77 77 76 76 76 76 76 76 76 76 77 76 76 76 76 76 76 75 74 72 71 71 71 71
40 38 37 34 29 26 26 29 29 29 30 29 27 26 38 55 57 61 65 71 73 75 75 75 77 77 77 76 76 76 76 76 76 76 76 77 76 76 76 76 75 75 74 72 71 71 71 72 71
45 37 34 31 29 27 26 26 26 28 30 29 30 31 52 55 61 61 68 72 74 74 75 75 77 77 77 76 76 76 76 76 76 76 76 77 76 76 76 75 75 74 72 71 70 71 73 73 72
33 33 33 29 27 28 28 28 28 27 28 28 30 52 57 59 60 64 69 71 72 73 75 77 77 76 76 76 76 76 76 76 75 76 76 76 76 76 76 75 74 74 73 72 72 73 73 73 73
28 29 29 28 27 27 28 28 28 25 30 27 31 49 55 59 61 64 68 70 70 73 75 76 77 76 76 76 76 76 76 75 75 76 76 76 76 76 75 75 74 73 73 73 72 73 73 73 73
23 28 26 26 26 27 28 29 31 32 25 26 28 37 41 57 58 59 66 67 68 74 75 76 77 76 76 76 75 75 75 75 75 75 75 76 75 75 75 75 74 73 73 72 72 72 72 72 71
22 23 25 26 26 26 27 29 30 33 30 26 30 34 37 38 52 59 59 65 71 73 74 75 76 77 76 76 75 75 75 75 75 75 75 75 75 75 75 74 73 73 72 71 71 70 70 69 68
22 22 21 25 25 25 27 32 35 34 34 32 29 32 34 38 40 62 60 61 70 71 73 74 75 76 76 75 76 75 75 75 75 75 75 75 75 75 75 73 73 73 72 71 70 69 67 66 65
21 18 17 19 24 25 25 31 34 36 35 33 34 31 34 34 34 52 61 64 68 70 71 72 73 74 74 75 76 76 76 75 75 75 75 74 74 73 73 73 73 73 72 71 69 68 66 65 66
18 16 15 17 19 21 21 24 31 34 35 33 33 35 37 34 32 32 57 62 63 69 69 70 71 72 72 73 74 74 74 75 74 74 74 73 72 71 71 71 73 73 72 71 70 68 67 67 61
17 16 16 17 17 16 13 18 30 32 34 35 34 33 32 34 31 30 29 47 59 67 69 69 70 70 70 71 73 73 73 74 73 73 73 72 71 71 71 70 70 70 71 68 68 66 65 62 60
14 16 15 15 17 16 16 23 22 26 33 29 26 28 25 25 27 30 26 28 41 65 69 68 71 69 68 70 73 73 73 73 72 72 73 72 70 70 68 68 68 68 67 65 64 63 61 60 58
13 14 14 15 16 16 19 20 21 21 23 22 20 21 21 24 26 27 26 27 30 58 68 64 70 71 71 71 71 71 72 72 72 72 73 72 71 68 67 66 67 66 65 63 61 61 60 59 58
14 13 13 15 16 16 18 18 19 20 21 19 19 21 22 22 23 24 27 27 29 45 66 68 70 70 69 68 70 69 68 70 71 71 72 72 70 68 66 65 64 65 63 61 60 59 60 59 61
19 16 14 14 16 16 19 16 16 18 19 18 19 20 21 21 24 25 26 28 32 36 63 64 66 66 63 64 67 68 70 68 68 68 70 71 68 68 67 63 65 63 62 61 59 61 61 61 61
19 17 14 15 16 16 16 13 17 19 18 20 20 22 24 26 25 31 34 38 42 48 64 69 63 61 58 64 68 70 67 68 66 66 67 69 69 66 67 63 64 64 61 62 59 58 62 63 61
18 14 14 14 16 14 15 15 17 19 21 21 21 23 23 24 28 32 31 37 40 40 44 62 64 62 60 68 68 70 70 68 66 66 67 68 68 68 68 65 62 65 61 60 63 61 62 61 60
13 14 13 12 12 14 14 15 17 20 20 22 23 24 25 26 26 28 35 36 44 49 52 50 55 70 71 72 70 70 71 70 70 67 66 68 67 69 70 66 65 66 64 61 63 62 62 62 61
19 15 12 14 15 14 14 14 16 18 21 22 24 24 25 27 27 30 34 35 39 44 46 45 48 59 72 70 71 71 70 70 70 70 68 69 69 68 69 67 66 67 63 65 63 64 62 62 62
17 17 16 18 17 15 16 16 20 20 21 23 23 25 26 27 27 30 31 37 38 37 48 49 44 50 64 71 71 72 72 71 70 70 70 68 69 68 67 67 65 66 66 65 64 62 62 60 61
16 17 17 17 18 19 19 19 19 21 23 23 24 26 28 28 32 34 40 43 46 45 50 55 55 52 54 66 71 70 71 70 70 70 69 69 69 69 68 67 66 65 64 63 64 62 60 59 63
14 17 17 17 20 16 21 18 22 24 25 23 20 31 32 34 35 37 39 42 43 46 49 48 57 61 60 60 63 67 67 68 69 70 70 70 70 69 69 68 67 65 64 62 62 63 62 59 60
17 21 21 22 20 22 22 21 21 23 24 29 31 31 34 37 38 39 41 44 44 45 47 52 52 54 55 55 61 61 63 67 68 69 68 70 71 70 69 69 67 65 65 62 63 63 65 62 59
22 22 22 23 22 19 20 22 21 23 24 30 30 31 33 35 36 36 38 39 41 42 43 46 50 51 53 54 54 57 61 62 65 66 67 68 67 70 70 70 70 69 68 67 65 66 65 65 62
27 23 20 20 21 22 31 33 30 28 28 29 29 31 31 33 34 35 35 36 37 38 39 45 45 46 50 53 55 54 54 57 61 61 65 66 65 67 69 69 70 69 68 68 66 65 65 65 65
29 27 32 29 24 25 27 26 27 29 30 31 32 32 32 33 35 34 34 35 38 38 43 44 45 46 47 50 51 53 55 57 56 55 56 65 66 65 68 68 68 68 68 68 68 65 67 65 65
27 24 28 26 27 26 24 23 26 31 32 31 31 32 31 30 33 35 36 37 36 36 39 42 43 45 48 47 47 50 54 57 57 56 56 55 65 67 66 68 67 68 65 66 70 69 68 68 68
30 27 26 28 23 21 21 22 21 25 25 26 24 23 24 25 28 35 37 37 38 36 37 39 43 47 43 45 46 47 49 53 55 55 58 57 59 66 66 66 68 66 66 68 70 70 69 69 70
26 27 28 32 32 25 21 22 28 28 27 25 24 24 31 34 35 35 36 37 37 37 38 40 43 44 43 42 43 44 45 52 52 56 59 59 59 62 65 67 67 67 65 67 68 69 68 68 68
29 30 29 34 32 32 29 25 28 30 26 25 29 31 33 33 34 34 35 35 34 35 36 36 37 37 40 41 43 42 48 50 50 57 57 57 58 59 61 66 66 65 64 59 58 63 66 63 66

GFSSGP_sfc_dewp_093.txt.gz
Dewpoint
57 39 38 37 30 33 31 31 34 33 31 33 32 31 50 53 49 44 67 69 73 74 74 74 77 76 76 76 76 76 76 76 76 76 76 76 76 76 76 76 76 75 73 71 71 72 71 70 70
51 38 36 34 30 26 27 30 29 29 31 31 30 42 56 55 64 67 68 72 73 74 75 74 77 76 76 76 76 75 76 76 75 75 76 76 76 76 76 76 76 74 72 70 71 72 71 71 71
45 37 32 31 29 26 26 28 29 29 30 31 31 56 56 58 66 66 71 72 74 74 74 75 76 76 76 76 76 75 75 75 75 75 76 76 76 76 76 76 76 74 72 70 71 72 72 72 71
34 33 32 30 28 29 29 29 29 28 29 31 47 55 58 62 63 68 72 73 73 73 73 76 76 76 76 76 76 75 75 75 75 75 75 76 76 76 76 76 75 74 72 71 72 73 73 73 72
28 30 28 29 29 30 30 30 29 28 28 29 42 55 56 67 71 72 73 72 73 73 74 75 76 76 76 76 75 75 75 75 75 75 75 75 75 75 75 75 74 74 73 72 72 73 74 73 72
22 27 25 24 26 29 30 30 29 29 28 29 42 44 47 68 70 71 71 72 73 73 75 74 76 76 76 75 76 75 75 75 75 75 75 75 75 75 75 74 74 73 73 72 72 73 73 72 72
22 24 22 25 25 26 28 30 28 28 28 27 36 39 41 57 69 70 70 72 73 74 74 74 75 75 76 75 75 75 75 75 75 75 75 75 75 75 75 74 74 73 73 73 73 73 73 72 72
24 22 24 21 21 22 27 27 28 28 27 29 35 32 35 41 68 69 70 73 73 74 74 74 74 74 74 74 75 75 75 75 74 75 75 75 75 75 74 73 73 73 72 72 72 72 72 72 71
21 19 17 18 20 21 22 22 27 27 22 22 37 33 36 61 65 68 71 72 72 72 72 73 74 73 73 73 74 75 75 75 74 74 75 73 72 73 73 73 73 72 72 71 71 71 70 70 69
15 15 15 19 20 19 20 20 21 20 19 20 39 39 40 45 62 66 69 70 70 71 72 72 72 72 73 73 73 73 74 73 73 73 73 72 71 71 72 72 73 73 72 71 70 70 69 68 60
16 13 15 16 20 20 19 19 18 17 17 18 32 37 40 31 41 63 68 69 70 71 72 72 71 71 73 74 73 73 73 73 73 73 72 71 71 71 72 70 71 70 71 68 69 67 65 61 60
12 16 15 13 18 22 20 20 18 19 22 21 29 39 35 43 28 34 62 68 70 70 71 72 72 72 72 73 73 73 73 73 72 72 73 70 70 70 70 70 69 69 68 67 65 64 62 60 58
13 14 13 14 16 17 18 16 16 16 18 22 37 38 39 40 42 27 48 66 69 69 70 71 72 72 72 73 73 72 72 72 72 72 72 72 70 70 70 69 68 69 67 66 64 63 61 60 58
20 19 18 16 14 15 15 15 17 18 19 26 36 36 38 39 38 34 29 56 67 68 69 70 70 68 71 72 72 72 72 72 72 72 72 72 70 69 69 68 68 67 67 65 63 61 60 58 57
20 17 17 16 15 14 15 14 17 19 21 22 28 22 38 36 32 24 25 41 65 67 68 68 66 66 71 70 70 70 71 71 71 72 72 72 70 69 68 68 67 67 66 64 63 60 59 58 56
20 20 17 16 17 15 15 13 17 20 19 20 21 20 21 23 24 25 27 33 39 61 66 65 65 67 69 69 67 64 61 66 69 71 71 71 71 69 68 68 67 67 65 64 62 60 58 56 55
20 16 15 15 16 17 15 14 18 19 18 19 20 21 21 21 26 28 31 31 50 49 62 61 62 66 68 68 65 64 60 64 67 68 70 70 71 70 68 68 68 67 65 63 62 61 58 55 55
16 15 17 16 17 17 15 15 16 18 18 19 20 21 22 22 24 26 33 31 44 60 62 60 63 67 67 64 63 64 68 68 68 69 69 71 71 71 70 68 68 66 65 63 63 61 58 56 58
21 20 19 20 20 19 16 16 17 18 18 18 20 21 22 23 25 33 36 37 42 51 60 64 63 63 63 61 62 63 64 69 69 69 70 69 70 71 71 70 69 67 64 64 63 61 60 59 60
22 20 19 20 20 18 17 16 19 18 19 18 20 21 22 25 31 42 44 47 47 45 49 53 55 63 63 62 61 64 66 69 70 69 69 69 69 69 70 70 70 68 67 64 63 61 60 60 61
22 21 20 17 20 21 19 17 20 22 24 25 25 24 26 25 31 41 44 47 49 52 54 53 52 56 60 67 68 68 68 67 67 67 69 69 69 69 69 70 69 69 67 67 66 65 61 60 61
22 23 20 19 20 16 22 15 20 22 24 31 33 33 36 39 40 42 42 42 46 49 50 51 52 52 54 56 57 59 62 62 65 65 67 67 69 69 69 69 69 69 69 68 68 67 66 65 60
21 24 21 23 20 19 19 17 19 23 24 31 34 36 38 39 39 40 40 41 42 45 45 45 47 49 50 52 54 56 54 58 60 60 60 61 63 67 69 69 69 68 69 69 68 68 67 66 65
29 24 23 24 21 16 22 19 20 27 27 31 33 35 36 36 37 38 38 39 39 40 44 42 42 45 47 48 51 49 49 50 53 54 58 58 60 63 65 66 67 68 68 68 68 67 67 66 66
28 24 20 17 19 18 31 29 27 32 30 30 31 33 34 34 34 35 35 35 36 36 39 43 42 42 45 45 46 47 48 47 49 49 52 55 58 60 61 62 64 66 67 68 68 67 67 67 65
30 27 26 19 22 24 31 28 30 32 31 31 31 33 34 35 35 36 36 36 36 37 38 38 39 39 41 43 45 46 46 47 48 49 50 53 55 57 59 60 62 64 65 66 67 68 67 67 65
30 27 30 29 30 26 27 31 26 30 31 32 34 34 34 34 34 34 35 36 36 36 37 37 38 38 39 40 42 42 43 43 45 48 52 53 54 55 56 58 59 60 63 65 66 66 66 66 65
31 32 29 29 23 22 23 25 23 26 29 31 31 32 33 33 34 34 35 35 36 36 37 38 38 38 39 39 40 40 41 43 44 45 49 51 54 55 56 57 57 57 58 60 63 65 65 64 64
32 29 32 33 31 25 22 23 27 29 31 31 31 32 32 33 34 34 35 36 36 37 38 38 38 38 38 38 38 40 42 42 43 46 49 50 52 55 57 56 56 56 57 59 60 62 63 64 63
32 31 32 29 31 29 26 27 31 31 31 31 32 33 33 34 34 35 35 36 36 36 37 37 38 38 38 38 38 38 38 39 40 44 46 49 50 51 53 55 56 58 57 58 59 60 62 62 62

GFSSGP_sfc_dewp_096.txt.gz
Dewpoint
57 44 38 37 28 32 32 29 34 30 30 32 32 30 31 53 50 46 68 71 73 74 75 76 76 76 76 76 76 76 76 76 76 76 76 76 76 76 76 76 76 75 73 72 71 71 71 71 72
51 37 36 34 27 24 24 30 28 29 30 30 31 50 54 55 64 67 68 73 73 74 75 75 76 76 76 76 76 76 76 76 75 76 76 76 76 76 76 76 75 74 72 71 71 71 71 71 72
44 35 32 31 29 25 24 28 29 29 29 31 33 48 56 57 66 67 71 73 74 73 74 75 76 76 76 76 76 75 75 75 75 75 75 76 76 75 75 75 75 74 71 71 72 72 73 73 72
33 30 31 29 28 29 28 29 30 29 30 29 30 46 58 67 66 68 72 73 73 73 74 75 76 76 76 76 75 75 75 75 75 75 75 75 76 75 75 76 75 74 72 72 73 73 73 73 73
28 30 27 28 28 30 30 31 30 29 29 28 31 53 53 69 72 72 73 72 72 72 73 75 76 76 76 75 75 75 75 75 75 75 75 75 75 75 75 75 75 74 73 73 73 73 73 73 73
21 28 23 21 25 28 29 31 30 29 28 28 30 41 49 69 71 72 72 72 72 72 73 73 74 75 75 75 75 75 75 75 75 75 75 75 75 75 75 75 74 74 73 73 73 74 73 73 72
20 22 22 24 24 26 28 30 28 28 28 27 28 39 44 65 70 70 72 73 73 73 72 72 73 74 75 75 75 75 75 75 75 75 75 75 75 75 74 74 74 73 73 73 73 73 73 72 72
24 21 21 21 17 19 25 26 28 28 27 28 33 32 33 54 69 72 73 73 72 71 71 72 73 73 74 74 75 75 75 75 75 75 75 75 75 75 74 73 73 73 73 73 73 73 72 72 72
22 18 15 14 19 18 23 20 26 27 24 24 24 34 40 68 69 71 71 72 71 71 71 72 73 73 73 73 74 75 74 75 74 75 75 74 73 74 73 73 73 73 72 72 72 72 72 72 71
17 15 13 16 20 19 19 19 19 20 19 20 23 35 52 66 68 69 70 69 70 70 70 71 71 71 72 73 73 73 73 73 73 73 73 72 72 72 72 72 73 73 72 72 71 71 71 70 66
16 11 14 15 19 19 18 19 20 19 18 19 21 25 36 54 62 67 69 69 70 71 71 71 71 72 72 72 72 72 73 73 73 72 72 71 71 71 72 71 72 71 72 69 70 69 68 65 63
13 15 13 12 19 22 20 21 20 20 19 20 22 24 32 32 51 63 66 69 69 71 71 71 72 72 73 72 72 71 71 72 71 72 72 71 71 70 71 70 70 70 69 69 67 66 65 64 61
13 15 15 15 15 17 19 17 17 17 19 19 20 25 35 38 37 36 56 66 69 70 71 71 72 72 72 71 71 71 71 72 71 72 72 71 70 70 70 70 69 69 68 67 66 65 64 62 61
19 19 19 19 17 15 15 16 16 17 19 19 21 30 38 38 40 37 39 59 68 70 70 71 72 72 72 72 71 71 71 72 72 71 71 71 70 69 69 69 69 68 68 67 66 64 63 62 60
20 20 19 19 18 17 16 14 15 16 17 20 22 31 34 39 36 39 38 44 65 69 69 70 71 72 71 72 72 71 71 71 71 71 71 72 71 69 69 68 68 68 68 67 65 63 61 60 59
20 19 18 18 17 17 15 13 16 18 19 19 20 21 23 28 38 28 27 32 43 66 68 69 70 69 69 71 71 71 70 68 71 71 72 72 72 70 69 68 68 68 67 66 65 63 62 60 59
19 16 18 15 17 17 14 14 18 19 18 20 21 21 22 22 27 33 29 41 38 49 63 67 68 66 67 70 69 66 64 64 67 70 71 72 72 71 69 68 69 69 67 66 65 63 62 62 59
16 16 17 17 18 19 18 16 18 19 18 18 19 21 23 24 26 33 40 42 41 56 60 62 63 65 68 66 65 65 66 66 66 68 70 71 71 71 70 69 69 69 68 66 65 65 62 62 61
21 20 19 20 21 20 18 17 17 19 19 18 19 21 23 29 32 33 35 41 49 57 64 63 62 66 66 65 64 64 64 67 69 70 70 70 71 72 71 71 70 69 68 68 66 66 64 62 61
22 20 20 21 22 19 19 17 19 20 21 21 21 21 24 26 37 41 40 43 48 52 61 63 63 63 64 63 63 64 65 66 69 70 70 70 70 71 71 71 70 68 67 67 67 65 65 65 64
22 21 21 21 21 21 21 17 20 24 26 31 31 31 32 33 35 43 47 49 52 53 53 54 56 62 64 64 65 66 68 68 67 68 69 69 69 69 70 70 68 67 67 66 67 66 65 64 65
22 24 23 23 20 16 22 14 19 23 25 33 34 36 39 40 41 44 45 47 49 50 52 52 53 54 56 61 63 65 66 65 65 65 67 66 68 69 70 69 69 69 67 66 66 68 67 65 64
23 25 24 22 19 23 18 16 17 25 25 32 36 38 38 39 40 40 41 43 44 45 45 46 48 50 51 54 55 56 55 58 59 59 59 59 62 68 69 69 69 69 69 67 67 68 68 67 66
29 24 23 24 20 16 18 18 19 27 29 32 35 36 36 35 36 36 37 38 38 40 42 42 44 44 46 47 48 50 50 51 53 53 54 56 57 60 62 67 69 69 68 68 68 68 68 67 67
27 23 19 16 17 17 29 27 24 30 33 32 33 33 35 35 36 36 35 36 37 37 39 39 40 41 42 44 44 46 46 48 49 49 50 52 53 55 58 62 64 65 67 68 68 68 67 67 67
29 24 23 17 18 21 31 27 29 32 32 34 35 34 34 34 35 35 36 36 36 38 39 39 39 40 41 42 43 44 44 44 45 48 48 48 51 53 56 59 61 62 64 66 67 67 67 67 67
30 27 29 29 29 26 27 29 28 32 34 33 33 33 33 34 34 35 36 37 37 38 39 39 39 40 41 42 42 43 43 44 44 46 47 48 51 51 53 57 58 60 62 64 65 65 66 67 66
30 31 29 28 23 22 24 26 24 28 31 31 32 32 33 34 34 35 36 37 38 38 38 40 40 40 41 41 41 41 42 43 44 44 45 46 48 52 53 54 56 58 59 59 61 63 64 65 65
31 30 32 32 28 24 21 23 29 27 31 31 31 33 33 34 34 35 35 36 37 37 37 39 39 39 39 40 41 41 41 41 42 43 45 45 46 48 48 51 54 56 57 57 58 59 61 62 63
32 30 33 29 28 26 24 25 31 31 31 32 33 34 34 35 35 35 35 36 36 37 38 39 40 39 40 41 41 40 41 41 41 41 42 44 45 46 47 48 50 52 55 57 58 57 58 60 60

GFSSGP_sfc_dewp_102.txt.gz
Dewpoint
55 33 32 34 26 27 28 27 29 30 29 31 31 32 32 39 46 47 67 68 67 68 73 73 77 77 78 77 77 77 76 75 75 76 76 76 76 76 76 77 77 76 74 73 73 73 72 72 71
34 30 32 28 19 21 24 28 29 29 28 30 30 32 37 47 58 60 64 70 69 70 74 73 77 77 77 77 77 77 76 76 76 76 76 76 76 76 76 77 77 75 73 72 72 72 72 72 72
36 30 21 18 18 15 20 25 28 29 28 28 30 35 50 55 62 64 69 70 70 72 73 74 77 77 77 77 77 76 76 76 76 76 76 76 76 76 76 76 76 74 72 71 71 72 73 73 72
23 22 22 18 11 14 15 23 29 28 28 28 27 34 40 53 64 69 68 68 70 71 71 76 77 76 77 77 77 77 77 76 76 76 76 76 76 76 76 76 75 74 72 71 72 73 73 73 73
24 17 8 11 7 6 25 25 27 27 26 26 25 28 32 63 70 70 68 68 68 69 70 73 76 76 76 76 76 76 76 76 76 76 76 76 76 76 76 75 75 73 73 72 72 72 73 74 73
15 15 3 0 1 5 17 23 24 22 19 19 19 23 33 60 68 70 68 67 66 67 70 72 76 76 76 76 76 76 76 76 76 76 76 76 76 76 76 75 75 74 73 73 73 73 73 73 73
14 10 0 -5 -4 1 7 15 15 7 7 8 12 19 32 46 68 70 69 67 66 67 68 70 69 74 76 76 75 75 75 75 75 75 75 75 75 75 75 75 75 74 74 73 73 73 72 72 72
15 12 1 3 0 -0 3 14 8 8 6 9 18 18 35 48 64 69 68 67 65 66 66 68 69 68 69 70 75 75 75 75 75 75 75 75 75 75 75 74 74 74 73 73 73 73 72 73 73
18 6 -0 -1 -1 2 6 5 15 16 12 14 17 24 28 47 62 68 67 66 64 64 66 67 68 67 65 64 70 74 75 75 75 74 75 73 68 71 71 70 73 73 73 73 73 73 73 73 72
11 5 2 -1 1 3 3 6 4 10 7 9 12 14 21 45 55 62 66 64 63 64 66 67 71 68 65 62 68 68 68 68 69 69 71 67 67 68 65 69 73 73 73 73 72 72 72 71 61
12 8 4 7 8 8 5 5 7 9 8 10 11 13 22 27 47 55 61 64 63 66 68 69 72 72 68 64 66 65 65 66 68 69 70 68 65 67 66 65 68 69 71 64 65 62 60 58 57
8 10 8 3 5 12 13 14 14 12 12 11 11 14 23 26 26 44 56 61 66 67 69 71 73 73 72 65 64 64 64 66 66 68 70 68 66 67 66 63 63 66 62 64 62 58 59 59 59
7 5 8 9 14 17 18 17 16 15 15 15 13 19 24 25 27 31 52 57 61 65 70 71 72 73 73 72 67 66 65 66 67 67 70 68 67 67 66 64 62 61 61 61 62 61 60 61 61
14 9 16 17 18 19 18 16 19 19 19 15 20 22 23 25 28 42 56 57 58 60 66 69 72 74 73 73 73 70 70 69 68 67 68 70 69 69 67 68 67 66 64 61 61 61 61 61 59
21 19 18 18 18 19 21 18 19 20 17 21 21 21 24 30 32 44 52 50 51 51 59 69 70 72 74 74 73 71 68 68 69 70 72 71 72 72 71 68 68 67 69 71 70 69 67 65 62
20 21 16 14 18 18 19 12 17 20 19 20 21 21 25 30 35 38 39 43 52 48 50 59 57 65 73 73 73 71 69 68 67 68 69 71 72 72 72 69 69 69 69 68 68 68 67 66 65
21 13 12 14 17 17 18 14 18 20 22 21 22 22 23 27 35 42 39 42 48 51 54 61 62 62 66 71 72 72 74 71 69 69 70 71 72 71 71 70 70 72 69 68 67 67 67 66 66
15 15 13 14 17 17 17 18 20 19 21 20 21 20 23 25 28 34 41 41 46 53 59 60 64 69 69 67 70 73 72 72 70 70 70 71 73 72 73 73 72 72 69 68 68 70 68 67 66
17 16 15 16 18 20 19 20 20 20 22 22 23 23 24 27 29 34 36 43 46 52 57 56 60 66 67 62 66 69 71 71 71 70 72 72 73 73 73 73 72 71 72 72 71 71 71 67 68
19 18 16 16 17 21 21 21 20 21 25 31 31 28 27 29 32 40 40 44 48 55 61 62 65 66 66 67 68 68 69 68 72 70 71 71 70 70 71 72 73 73 71 72 72 71 68 67 67
19 18 17 14 21 21 22 22 21 23 27 33 35 35 36 33 40 44 47 52 55 59 62 65 68 69 68 68 68 69 69 69 67 67 70 71 71 71 70 72 73 74 75 71 72 71 70 64 63
18 17 17 16 19 16 23 13 21 22 25 34 37 39 39 42 46 48 49 51 53 55 56 58 59 60 60 64 68 69 67 66 66 66 67 67 68 69 70 71 72 73 74 72 70 69 68 67 62
19 17 22 23 21 20 21 16 17 23 23 35 38 41 44 45 45 45 45 47 49 50 52 54 55 55 56 57 57 55 58 54 55 56 60 62 62 63 63 66 67 71 73 72 72 72 70 66 65
22 24 25 26 22 19 19 17 13 18 24 35 37 39 41 42 43 44 45 46 45 46 46 50 52 53 54 53 54 55 55 55 52 54 52 50 51 52 57 58 61 65 67 67 67 70 71 70 67
25 26 19 17 16 15 18 18 19 29 30 33 37 39 41 42 42 41 40 41 43 44 45 44 49 50 51 52 52 52 54 55 54 53 48 52 48 48 54 57 59 57 60 62 65 69 69 68 66
25 26 18 19 14 12 24 19 21 33 33 36 38 39 40 41 41 40 41 40 40 43 46 46 47 49 50 50 52 52 53 48 48 50 50 49 48 48 54 54 55 56 57 58 61 60 61 66 65
24 24 24 25 26 24 23 27 34 35 36 37 37 38 39 39 39 38 39 41 41 43 45 46 47 48 49 49 51 52 51 52 51 53 53 48 52 48 51 52 53 53 53 54 58 55 61 65 66
29 28 27 25 24 24 21 23 24 34 35 36 36 37 38 37 37 38 38 40 42 43 43 47 48 48 48 49 49 48 50 50 51 51 52 52 52 52 51 52 52 53 53 53 55 54 57 62 61
28 26 28 30 33 28 24 24 32 33 35 36 35 37 37 36 34 35 36 37 38 40 41 45 46 46 46 47 48 48 48 49 49 49 49 49 50 50 48 48 49 49 50 52 53 54 53 56 60
31 28 30 32 29 30 29 25 34 36 35 37 35 36 35 35 34 35 35 35 37 39 41 43 45 45 45 45 46 47 48 48 48 48 48 48 48 48 47 47 47 46 47 49 49 49 51 52 54

GFSSGP_sfc_dewp_105.txt.gz
Dewpoint
57 40 28 24 25 28 28 27 28 30 31 30 31 30 31 32 41 53 65 67 65 70 72 72 78 78 78 77 77 77 76 76 76 76 76 76 76 76 77 77 77 76 75 75 74 73 72 71 71
41 23 22 21 21 24 24 26 27 29 30 29 29 30 33 48 57 57 64 68 66 71 73 72 77 78 78 77 77 76 76 76 76 76 76 76 76 76 77 77 76 75 74 73 73 72 72 71 71
38 24 18 17 18 24 23 23 26 29 29 28 28 31 43 52 58 63 68 67 67 72 73 74 77 77 78 77 77 76 76 76 76 76 76 76 76 76 77 77 76 74 73 72 72 72 72 72 72
23 18 19 15 18 20 23 23 23 27 29 28 27 29 41 53 61 66 65 66 69 70 71 76 77 77 77 77 77 76 76 76 76 76 76 76 76 76 76 76 75 73 72 71 71 72 72 72 72
22 14 10 7 11 15 16 16 20 27 25 25 26 26 31 56 65 67 66 66 67 68 71 74 77 77 77 77 77 77 76 76 76 76 76 76 76 76 76 75 74 73 72 72 72 72 72 72 72
13 12 8 3 2 5 6 16 19 21 19 19 18 21 26 51 62 66 65 65 64 65 70 73 76 77 76 76 77 76 76 76 76 76 76 76 76 76 75 75 74 73 73 72 72 72 72 72 72
15 9 4 1 -3 -4 -1 8 16 17 14 10 8 10 23 43 63 66 66 65 64 64 67 70 70 74 76 76 76 76 76 76 76 75 76 76 76 76 75 75 74 73 73 74 73 73 72 72 71
14 11 6 2 -4 -5 -2 4 10 7 4 4 8 14 18 49 61 65 66 64 63 64 64 67 67 68 70 72 76 76 76 76 75 75 75 75 75 75 75 75 75 73 73 73 73 73 72 72 72
14 11 5 4 -2 0 -2 3 6 8 7 7 11 14 29 39 56 62 63 63 63 63 65 65 65 66 64 64 72 75 75 75 75 75 75 74 68 71 72 70 74 74 73 72 73 73 73 72 72
14 8 6 0 -1 -2 -1 3 3 8 9 5 8 10 17 26 50 59 61 60 61 62 63 63 68 66 64 62 69 68 68 69 70 69 71 68 67 68 65 69 74 74 73 73 73 73 72 71 60
10 7 1 -0 3 4 4 3 2 4 7 7 8 10 10 19 43 51 57 63 61 63 64 64 69 69 65 62 67 64 65 65 67 68 69 70 66 67 64 65 67 68 71 65 66 65 61 58 57
7 7 4 4 4 5 4 5 6 9 11 9 8 12 11 19 31 46 53 61 64 68 66 68 70 71 71 63 63 64 63 65 65 66 69 69 65 67 67 61 64 67 62 65 61 58 61 59 57
7 7 5 5 4 5 10 11 13 10 11 11 11 11 11 19 30 33 50 58 68 68 69 70 71 72 72 72 66 67 64 64 66 66 68 69 66 70 66 67 61 63 61 60 62 59 61 59 59
6 5 3 5 9 11 13 12 11 14 16 16 16 14 14 21 27 33 38 57 61 64 68 70 71 74 74 73 73 70 71 68 67 66 67 70 69 72 69 69 64 64 59 59 60 61 61 60 60
9 12 11 6 14 16 16 14 13 16 18 17 16 19 20 21 26 33 42 58 59 61 64 66 71 71 74 75 73 72 69 68 68 67 71 70 73 73 73 68 69 69 69 73 70 68 65 63 60
14 14 13 12 13 14 16 12 13 17 19 19 21 20 20 23 25 34 48 57 54 50 60 66 61 70 73 72 70 69 72 71 67 68 68 71 72 72 75 73 69 68 70 68 66 67 66 65 64
17 11 10 9 13 14 16 12 18 19 20 21 22 22 21 27 33 40 45 49 49 57 58 60 62 63 72 73 69 68 69 71 72 71 68 70 71 70 72 69 67 72 75 71 69 69 69 67 65
11 12 11 10 15 15 15 15 17 19 20 21 21 21 23 24 30 36 39 40 43 52 53 56 60 63 72 69 71 64 67 72 77 71 71 73 71 71 72 71 71 72 71 74 73 72 70 69 66
13 14 13 13 14 17 17 17 17 20 21 20 21 22 23 25 26 33 36 38 40 50 58 61 61 69 67 59 55 57 60 63 66 70 74 72 73 72 74 67 68 70 68 71 73 72 71 70 71
15 15 16 15 15 18 20 19 20 22 22 23 25 26 25 25 29 36 38 40 44 54 59 64 63 66 64 57 63 58 57 55 63 72 72 72 72 72 73 73 69 71 67 73 71 72 69 71 71
19 16 17 14 15 16 17 19 22 21 23 27 29 29 28 27 32 42 44 48 53 59 61 64 67 68 68 67 65 66 67 66 64 68 68 72 72 72 73 72 73 72 59 62 63 67 68 67 69
19 17 15 15 15 13 18 12 21 24 23 27 32 33 33 32 41 46 50 53 57 58 60 62 63 64 66 68 69 70 64 69 70 73 72 70 70 69 70 70 71 70 63 64 61 69 70 70 67
18 16 17 18 17 16 14 15 17 22 22 28 33 34 37 41 45 46 47 50 52 55 56 58 59 60 60 62 62 63 63 59 62 65 65 67 65 62 59 63 66 70 72 72 71 70 71 70 67
18 18 18 18 19 16 17 18 16 21 23 28 34 38 42 42 44 45 47 48 49 50 52 54 56 57 57 57 57 59 58 57 54 56 55 53 52 53 57 56 61 63 65 67 69 70 70 70 69
20 21 17 18 17 14 18 15 21 25 23 32 35 37 40 43 44 44 44 44 46 47 48 49 52 53 54 54 55 55 57 58 56 55 51 55 51 50 59 62 61 58 62 61 64 65 68 68 67
20 24 18 21 17 14 19 20 18 25 29 32 37 39 41 42 42 41 43 43 43 46 47 48 50 52 52 52 53 54 55 50 51 53 53 52 51 51 59 57 56 56 56 57 61 58 58 63 63
23 21 23 22 27 29 20 23 32 32 29 34 37 39 41 41 42 42 42 43 43 45 48 48 49 50 50 51 53 54 53 54 54 55 56 51 55 52 55 54 55 55 55 56 59 54 58 60 62
23 26 26 27 29 25 25 27 26 32 31 35 37 39 40 40 39 40 41 42 44 44 45 48 49 49 49 50 50 50 52 52 53 54 54 54 54 53 53 53 53 53 53 53 57 55 56 58 57
22 27 32 33 28 29 24 27 36 39 34 35 36 38 39 38 37 38 38 39 39 41 42 46 46 47 47 48 49 50 51 51 52 52 51 52 52 52 50 50 50 50 50 52 54 55 54 54 56
28 26 33 31 31 31 32 31 33 36 39 43 36 37 37 37 36 35 36 37 38 39 40 42 46 45 45 46 48 49 50 50 51 51 51 50 49 49 48 48 47 47 46 50 50 50 49 50 50

GFSSGP_sfc_dewp_108.txt.gz
Dewpoint
52 34 31 23 22 28 28 28 28 28 31 32 31 30 30 31 50 58 64 65 68 70 74 75 78 77 77 77 77 77 76 76 76 76 76 76 76 77 77 76 76 76 76 75 74 73 72 72 72
36 36 27 18 20 24 26 26 26 27 30 31 29 29 30 54 56 64 67 66 70 70 73 74 78 78 77 77 77 76 76 76 76 76 76 76 76 77 77 77 76 76 75 74 73 72 71 72 72
42 34 19 16 16 21 23 25 25 26 29 29 28 31 32 53 59 64 66 67 71 72 72 76 78 78 77 77 76 76 76 76 76 76 76 76 76 77 77 77 76 75 74 73 72 72 73 72 72
24 23 19 14 17 21 22 26 27 27 29 29 28 28 42 54 58 64 64 65 71 71 71 77 77 77 77 77 76 76 76 76 76 76 76 76 76 77 77 76 76 75 73 72 73 74 74 73 73
25 16 11 9 13 17 20 22 24 22 26 27 27 27 36 57 62 65 65 66 68 69 74 75 77 77 77 77 76 76 76 76 76 76 76 76 76 76 76 76 75 74 73 73 74 74 74 74 73
16 16 10 5 7 9 12 15 16 16 23 26 24 23 26 55 60 65 64 65 67 70 74 74 77 77 77 77 77 76 76 76 76 76 76 76 76 76 76 75 74 74 74 73 74 74 74 74 74
16 12 6 4 3 2 2 5 7 14 18 20 18 16 18 34 61 62 64 64 64 68 71 72 73 76 77 77 76 76 76 76 76 76 76 76 76 76 75 75 74 74 74 74 74 74 73 73 73
14 14 9 4 -0 -0 -2 0 10 12 14 15 13 6 15 54 58 62 63 63 63 64 68 70 72 73 74 75 76 76 76 76 76 76 76 75 75 75 75 74 74 74 74 74 74 74 73 73 73
15 10 9 6 4 2 -2 0 5 7 4 4 4 8 28 46 53 58 60 61 61 63 67 68 69 71 70 71 74 76 76 76 76 76 76 74 72 73 73 72 74 74 74 74 74 74 74 73 73
13 11 8 7 4 2 -1 -0 2 5 7 9 8 11 13 28 43 51 56 57 66 64 65 65 69 67 66 66 73 73 73 74 74 73 74 72 71 71 68 70 74 74 74 74 73 74 74 73 65
10 12 11 5 4 1 2 3 1 4 6 8 8 7 7 10 29 46 52 53 62 65 66 65 68 69 65 66 71 68 70 70 71 71 73 72 69 71 68 69 70 72 73 69 70 70 69 65 63
6 10 10 6 4 3 3 5 4 4 5 7 9 9 10 13 14 26 45 50 62 70 71 72 70 69 72 69 68 66 67 68 68 68 71 71 70 71 69 67 68 70 68 68 66 64 64 62 62
6 4 6 6 4 3 4 4 3 6 10 11 11 12 12 15 20 34 44 48 66 65 71 72 70 74 71 72 70 66 67 67 67 69 70 70 69 71 71 69 68 68 66 67 66 64 64 63 61
7 5 5 5 5 5 4 2 9 11 14 13 14 15 14 14 17 34 37 52 65 71 66 66 70 73 74 74 73 73 75 74 72 71 70 71 72 73 72 72 72 70 70 67 66 65 67 64 63
8 6 6 4 5 4 9 9 11 14 13 16 18 19 17 18 17 32 38 49 67 67 63 65 71 72 73 73 74 73 73 71 74 73 74 72 73 74 73 72 71 71 71 74 73 71 71 68 66
9 9 7 8 12 3 11 12 14 16 15 16 17 17 19 21 23 27 36 55 64 67 69 70 65 71 73 74 74 74 73 75 73 72 72 73 74 74 75 75 73 72 74 72 72 71 69 69 68
13 12 10 9 10 10 9 12 14 15 17 21 21 22 22 25 31 38 42 61 62 62 67 69 70 72 72 74 74 74 75 72 72 70 72 72 72 72 71 71 71 72 71 73 72 73 71 70 70
14 15 13 11 11 9 11 14 16 19 20 21 22 22 24 26 33 42 48 57 58 62 67 70 70 74 75 73 75 73 73 75 75 72 72 72 73 71 67 63 68 70 72 72 72 71 71 71 69
14 14 13 11 12 14 15 16 16 18 21 21 23 25 27 29 34 41 46 55 56 65 68 68 70 74 72 72 68 68 69 70 72 72 73 73 71 70 65 62 67 69 69 70 68 64 61 66 67
13 12 12 14 13 17 18 17 18 18 19 22 25 25 27 30 32 40 47 51 60 65 68 68 69 72 73 72 72 71 69 68 69 70 74 74 73 72 69 70 71 70 68 65 63 61 60 64 64
13 13 13 15 14 15 17 18 22 20 21 23 24 28 28 32 40 42 45 52 61 64 68 69 71 71 72 74 71 72 70 70 67 68 69 72 72 73 74 73 73 72 66 64 63 61 59 59 62
14 14 15 16 18 13 18 14 23 23 25 23 26 32 30 32 42 45 49 57 63 62 64 65 66 68 67 70 70 72 70 68 67 66 67 67 68 69 68 71 70 70 64 60 61 63 59 63 61
15 17 17 17 17 18 17 16 17 22 23 26 32 34 34 43 47 49 52 56 56 59 60 62 63 63 65 65 65 65 65 64 65 65 64 65 66 67 64 64 65 69 66 65 65 62 60 65 65
17 18 18 18 16 15 17 16 15 20 25 26 32 33 38 44 47 48 51 54 54 56 56 59 60 61 62 61 62 63 62 62 60 61 60 61 59 61 65 60 63 64 65 65 65 68 67 67 67
20 21 15 15 16 14 17 15 19 28 29 27 32 39 43 46 46 46 46 47 50 51 54 55 57 58 60 60 60 60 62 63 62 61 60 59 57 57 59 61 62 60 61 61 62 62 63 64 65
20 22 16 17 15 14 18 18 18 30 37 39 36 40 43 45 45 44 46 47 46 49 52 52 55 56 57 58 59 60 61 57 58 59 58 57 56 57 60 59 58 58 57 58 59 58 58 59 59
20 18 21 22 28 32 26 21 23 25 35 37 38 39 42 43 44 43 44 46 47 49 52 52 53 55 55 56 58 59 58 59 58 60 60 57 58 54 56 56 56 56 56 56 57 55 56 58 58
22 21 22 22 29 27 29 27 24 27 35 39 39 40 42 43 42 43 44 46 48 49 50 53 54 53 54 55 56 54 57 57 58 58 57 57 57 56 55 54 54 54 54 54 54 52 53 54 55
20 25 29 33 30 31 28 35 43 42 43 38 37 40 42 41 40 41 42 44 44 46 47 51 50 49 51 52 54 55 55 55 55 55 55 55 55 54 51 51 50 50 50 50 50 50 50 50 50
21 24 32 36 32 32 31 36 46 45 48 44 46 40 39 39 38 38 38 39 39 41 42 47 49 46 48 49 51 53 54 54 55 54 54 54 52 51 50 49 48 47 47 48 48 47 47 47 47

GFSSGP_sfc_dewp_111.txt.gz
Dewpoint
50 32 37 29 21 26 27 29 30 30 29 32 31 29 38 59 57 59 68 70 71 74 77 76 77 77 77 77 77 76 76 76 76 76 76 76 76 76 76 76 77 76 76 74 73 73 72 73 73
40 36 35 26 18 19 24 28 28 29 31 30 29 30 48 62 65 66 67 70 72 74 75 76 77 77 77 77 76 76 76 76 76 76 76 76 76 76 76 76 76 76 75 74 73 72 72 73 72
46 37 32 17 15 17 22 26 28 30 30 29 29 31 44 59 67 68 68 70 71 72 74 77 77 76 77 77 76 75 76 76 76 76 76 76 76 76 76 76 76 76 75 74 72 72 73 73 72
31 24 26 15 14 15 18 22 24 24 29 30 29 30 51 59 63 65 70 70 70 70 74 77 77 77 77 77 76 75 76 75 75 76 76 76 76 76 76 76 76 75 74 73 73 74 74 73 73
28 24 17 13 13 14 16 20 22 23 26 28 28 32 55 62 64 64 71 71 69 71 75 76 77 77 77 77 76 76 76 75 75 76 76 76 76 76 76 76 75 75 74 74 74 74 74 74 74
22 19 14 11 9 9 11 15 17 16 15 28 27 26 53 62 64 65 68 70 70 74 74 75 77 77 77 76 76 76 75 75 75 75 76 76 76 76 76 76 75 74 74 74 74 74 74 74 74
25 18 12 12 10 8 7 8 9 9 12 24 18 19 37 58 64 64 64 68 73 73 73 74 76 77 77 76 76 76 75 75 75 75 75 75 75 75 75 75 74 74 74 74 74 74 74 74 74
23 17 14 13 7 4 3 7 12 12 18 18 18 12 31 60 62 65 64 67 72 73 73 73 75 76 75 76 76 76 75 75 75 75 75 75 75 75 75 74 74 74 74 74 74 74 73 73 73
20 13 11 12 11 8 8 2 7 9 6 8 10 19 50 53 55 60 62 67 71 71 71 71 73 74 74 75 75 76 76 75 75 75 75 74 73 74 74 74 74 74 74 74 74 74 73 73 73
19 13 12 12 10 7 6 3 3 8 9 10 13 12 30 41 49 50 57 60 68 69 69 71 71 72 72 73 74 74 74 75 74 74 74 73 71 72 72 72 73 74 73 73 74 74 74 73 70
16 13 13 12 10 8 7 3 5 8 10 15 13 12 14 16 29 33 48 54 64 69 70 70 70 69 68 71 73 73 73 73 73 73 73 72 70 70 71 69 70 71 73 71 72 71 71 70 69
15 12 12 12 12 10 6 6 6 7 7 10 11 15 13 12 13 22 24 59 69 68 65 68 70 70 71 71 70 70 71 71 71 71 72 70 69 68 68 69 69 70 70 69 67 68 67 66 64
14 10 9 11 11 8 6 4 5 5 8 13 12 14 15 14 17 19 19 69 69 64 64 66 65 65 69 72 70 68 67 68 68 68 70 70 68 67 69 66 68 69 68 68 65 65 64 63 60
14 10 8 6 7 6 6 6 6 8 13 15 16 16 15 15 15 16 36 66 66 65 63 65 65 64 67 71 72 68 68 66 68 67 69 69 69 67 69 67 69 68 67 66 66 64 63 62 60
14 11 8 6 5 6 8 6 6 8 14 15 15 16 18 19 19 16 35 66 64 64 62 63 65 65 68 72 72 71 70 69 68 69 69 69 71 70 71 71 68 67 68 67 69 66 67 66 64
11 10 6 7 8 6 6 3 13 13 14 17 17 19 19 20 20 22 40 67 61 61 63 64 66 68 70 69 71 72 70 71 70 70 71 72 72 71 70 69 69 70 70 70 70 69 68 66 62
12 8 8 7 10 11 5 3 12 17 16 18 18 21 19 20 25 27 40 66 64 61 62 66 66 69 69 66 68 71 71 70 70 68 68 70 71 70 70 69 68 69 68 66 66 68 66 67 66
9 8 8 13 10 11 10 5 5 14 19 19 23 23 24 26 27 30 53 64 67 62 64 66 67 68 68 69 72 72 73 71 69 63 64 71 70 70 69 67 66 67 65 64 66 61 61 63 66
10 10 12 16 16 14 11 11 11 16 21 21 21 24 27 26 29 45 57 58 64 68 68 67 68 69 71 71 69 68 67 69 71 71 70 69 70 69 65 62 62 61 64 63 62 61 60 60 60
12 9 9 15 16 13 15 17 16 20 22 22 26 24 26 30 34 42 55 63 63 64 66 69 69 70 70 70 67 66 65 68 68 68 69 70 69 69 65 62 62 66 65 63 62 60 59 58 60
11 9 10 14 16 16 19 20 22 28 26 23 26 26 28 32 40 54 60 64 65 66 66 66 66 66 66 68 67 66 64 63 65 66 66 66 69 70 66 66 66 68 65 62 61 60 57 55 58
11 12 12 14 15 17 18 14 21 24 21 23 27 27 27 38 47 60 60 60 60 60 61 61 62 62 62 64 67 66 65 63 63 62 61 62 64 65 64 64 67 66 60 58 59 60 58 57 56
17 17 14 15 18 19 18 17 16 21 20 18 27 31 37 42 52 55 55 57 58 58 59 59 59 59 59 60 61 59 57 58 60 57 55 57 56 58 57 60 63 64 62 60 59 62 59 59 57
20 18 17 17 17 17 17 18 17 19 20 18 25 33 46 49 51 52 53 55 56 56 57 57 57 57 58 57 58 57 56 56 55 54 56 55 55 57 58 58 58 58 58 58 60 64 62 60 62
18 17 16 18 16 15 17 17 17 26 36 24 25 44 46 47 48 48 50 51 53 54 55 55 55 55 55 56 56 55 55 55 55 55 55 54 53 54 56 56 55 55 55 55 56 57 58 59 61
16 19 19 15 16 15 17 15 15 24 38 33 43 45 46 45 45 46 48 48 49 51 52 53 53 53 53 54 54 55 54 53 54 55 54 54 55 53 55 54 54 54 53 53 54 55 55 55 55
19 18 20 20 33 30 30 27 24 33 38 40 42 44 47 47 47 45 46 46 48 49 49 51 51 50 51 52 53 52 52 53 53 53 54 53 53 52 52 52 52 53 53 53 53 53 52 53 54
21 22 19 19 26 25 30 34 35 41 38 37 39 43 44 44 43 44 46 47 48 48 48 49 49 49 50 50 49 50 51 52 52 52 52 51 52 51 51 50 50 49 48 48 48 48 48 48 48
21 21 23 29 31 27 26 33 45 44 45 43 41 41 41 41 42 43 45 45 48 48 48 47 46 46 47 47 48 50 50 51 51 51 51 51 50 49 48 48 47 47 46 46 46 46 46 46 46
21 20 31 32 28 32 33 35 47 46 48 49 48 47 43 41 41 41 42 43 42 44 45 44 44 44 45 46 48 49 50 50 50 50 49 50 48 47 47 46 46 47 47 46 46 46 46 45 44

GFSSGP_sfc_dewp_114.txt.gz
Dewpoint
49 31 38 30 21 26 26 28 30 30 30 31 31 50 60 61 55 52 68 69 73 75 76 76 77 77 77 76 76 76 76 75 75 75 76 76 75 75 75 76 76 76 75 73 73 71 72 72 72
41 36 34 28 18 18 21 27 27 29 30 30 30 54 61 62 65 67 68 71 73 75 75 75 77 77 77 76 76 76 76 75 75 75 76 76 76 75 76 76 76 76 74 73 73 71 72 72 71
43 37 32 27 16 16 19 24 26 28 28 28 29 41 59 64 68 68 69 71 74 75 75 75 77 77 77 76 76 75 75 75 75 75 76 76 76 76 76 76 76 75 74 73 72 71 72 72 72
31 25 25 17 14 15 18 20 25 24 24 27 29 49 57 65 67 67 70 72 72 74 75 76 77 77 77 76 76 75 75 75 75 75 76 76 76 76 76 76 76 76 74 73 72 73 73 73 72
28 23 20 16 14 14 14 15 16 18 22 23 28 43 59 64 67 69 70 69 71 73 76 76 76 77 77 76 75 75 75 75 75 75 75 76 76 76 76 76 75 75 75 73 73 73 73 73 72
21 21 15 14 14 13 12 11 10 10 14 17 29 55 59 65 68 69 69 68 72 73 75 76 77 77 76 76 76 75 75 75 75 75 75 76 76 76 76 75 75 75 74 74 74 74 74 73 73
24 19 14 13 12 12 12 12 7 6 6 13 26 40 56 63 69 70 70 69 72 73 74 75 76 76 76 76 75 75 75 75 75 75 75 75 75 75 75 75 75 74 74 74 74 74 74 73 73
26 21 20 14 11 10 11 6 4 10 16 18 17 15 54 62 67 70 70 70 72 72 73 75 75 76 75 75 76 75 75 75 75 75 75 75 75 75 75 74 74 74 74 74 73 73 73 73 73
22 17 14 14 14 14 13 4 6 8 9 10 13 48 58 62 64 66 70 72 72 72 73 74 74 74 73 75 75 75 75 75 75 75 75 74 73 73 74 74 73 73 73 74 74 73 73 73 73
20 18 16 13 13 12 10 9 7 6 8 12 12 20 52 54 52 62 70 71 71 71 72 73 73 73 74 73 74 74 74 74 73 73 73 72 72 72 72 73 73 73 73 73 74 73 73 73 70
17 17 16 14 14 14 12 8 5 5 6 10 13 13 22 38 37 39 50 70 70 71 71 71 72 72 72 73 74 74 74 73 73 73 73 71 71 71 72 71 71 71 73 71 72 71 71 70 70
19 17 16 15 14 15 12 10 6 6 5 9 10 17 14 14 22 29 62 68 68 69 69 70 70 70 71 73 73 73 73 73 73 73 73 71 70 69 70 69 69 70 70 70 69 68 68 68 68
21 20 18 14 13 12 12 10 5 3 7 9 12 14 15 15 15 41 68 66 67 68 69 68 69 71 71 71 71 72 71 71 71 72 72 71 69 68 68 68 68 69 69 69 68 66 66 65 65
21 21 20 15 9 10 10 9 7 7 8 9 15 16 15 15 14 60 66 65 67 68 68 68 68 69 70 70 70 69 69 69 70 69 70 71 69 67 67 67 68 68 68 68 67 65 64 63 62
21 18 17 13 10 7 8 7 7 8 10 9 13 14 16 17 17 36 66 65 65 66 67 66 67 69 68 68 70 71 67 67 68 68 69 71 70 69 70 70 68 68 68 69 69 69 68 67 66
15 17 15 14 10 9 7 4 8 11 9 12 15 15 17 19 19 26 65 66 65 64 64 64 66 67 65 70 70 71 70 69 69 70 70 70 71 70 69 69 69 70 70 68 67 66 66 66 65
15 12 9 9 9 8 6 5 9 10 14 13 15 18 19 20 22 39 65 65 63 63 63 63 62 61 64 69 70 69 71 70 70 69 70 71 71 70 70 69 68 69 66 65 66 63 64 63 62
16 10 10 9 12 10 8 9 9 10 13 17 18 18 21 20 21 42 65 64 63 62 62 62 64 64 68 68 68 71 71 70 69 65 66 70 70 69 68 67 65 66 63 64 62 60 61 61 61
14 10 11 11 11 14 11 9 12 12 10 12 20 19 22 22 24 43 65 63 62 61 63 65 66 67 68 68 67 68 69 69 69 70 70 69 69 69 66 64 63 62 62 61 60 59 58 60 61
13 11 11 12 15 16 16 16 15 14 12 18 23 21 24 26 32 57 63 65 62 63 65 66 66 67 67 69 67 67 68 67 68 69 69 69 69 68 65 63 61 62 62 61 60 59 57 57 58
14 11 12 11 12 17 16 16 20 20 21 22 27 25 28 29 57 61 62 65 66 66 66 66 66 66 66 68 66 65 64 66 65 63 63 64 68 69 66 64 62 64 63 61 60 59 57 55 55
13 14 13 13 13 13 18 13 17 21 19 21 25 27 49 59 61 61 61 61 62 61 62 62 62 62 64 66 65 63 62 61 61 60 58 60 59 61 63 65 66 66 63 62 61 59 56 54 53
15 17 16 14 14 16 18 15 17 20 19 20 26 35 56 59 58 58 57 57 58 59 59 59 59 60 60 60 59 59 59 57 56 55 54 56 57 57 58 58 61 62 60 59 58 58 58 57 55
21 21 18 17 14 13 14 17 17 17 18 22 30 47 55 55 55 55 56 56 56 56 57 57 57 57 57 57 56 56 55 54 54 54 53 53 54 56 56 55 55 54 54 55 56 57 59 59 58
24 19 17 15 15 13 17 17 18 20 23 26 44 51 52 53 53 53 53 54 54 54 55 55 54 55 55 54 54 54 54 54 53 53 52 53 53 53 53 53 53 53 53 52 53 53 54 55 55
25 22 17 14 17 15 17 16 16 22 35 34 46 49 50 50 50 52 52 52 53 53 53 53 52 52 53 53 53 52 53 53 53 52 53 52 52 52 52 52 52 53 53 53 53 52 52 53 52
26 23 20 21 31 24 26 31 29 37 39 44 45 46 46 47 48 48 49 49 50 50 51 50 50 51 52 52 51 51 52 52 52 52 52 52 52 51 51 51 50 49 48 48 47 48 47 48 47
26 21 19 23 25 22 28 32 33 41 43 43 44 44 45 46 45 46 48 48 48 48 48 48 49 49 49 49 49 50 51 52 51 51 50 50 50 49 48 47 46 46 47 46 46 46 46 46 46
26 21 22 25 28 24 23 28 42 44 46 44 44 45 45 46 46 46 46 46 47 47 46 45 46 46 46 48 49 49 50 50 50 50 50 50 48 47 46 46 46 46 46 46 46 45 46 46 45
35 32 26 25 28 28 29 30 46 46 48 48 48 46 45 44 45 45 46 46 45 43 42 43 44 45 45 46 48 49 49 49 49 48 48 49 46 46 46 46 46 47 47 47 46 46 46 46 45